This is the latest recevied weather packets stored in our database for station/object N6GPM. If no packets are shown the sender has not sent any weather packets the latest 10 day(s).
| Time | Temp. | Humidity | Pressure | Rain* | Wind** | Luminosity | Snow |
|---|---|---|---|---|---|---|---|
| 1788039459 | 35.56° C | 29% | 1015.9 hPa | 0 mm | - | 858 W/m² | - |
| 1788039154 | 36.11° C | 29% | 1015.9 hPa | 0 mm | - | 871 W/m² | - |
| 1788038850 | 35.56° C | 30% | 1016.2 hPa | 0 mm | - | 882 W/m² | - |
| 1788038545 | 35.56° C | 30% | 1016.1 hPa | 0 mm | - | 905 W/m² | - |
| 1788038244 | 36.11° C | 30% | 1016.1 hPa | 0 mm | - | 907 W/m² | - |
| 1788037939 | 35.56° C | 30% | 1016.2 hPa | 0 mm | - | 929 W/m² | - |
| 1788037634 | 35.56° C | 30% | 1016.2 hPa | 0 mm | - | 953 W/m² | - |
| 1788037329 | 36.11° C | 29% | 1016.4 hPa | 0 mm | - | 972 W/m² | - |
| 1788037028 | 36.11° C | 30% | 1016.3 hPa | 0 mm | - | 1000 W/m² | - |
| 1788036724 | 36.11° C | 29% | 1016.3 hPa | 0 mm | - | 1045 W/m² | - |
| 1788036421 | 35.56° C | 29% | 1016.1 hPa | 0 mm | - | 983 W/m² | - |
| 1788036115 | 36.11° C | 28% | 1016.4 hPa | 0 mm | - | 981 W/m² | - |
| 1788035822 | 35.56° C | 27% | 1016.4 hPa | 0 mm | - | 986 W/m² | - |
| 1788035510 | 35.56° C | 27% | 1016.2 hPa | 0 mm | - | 996 W/m² | - |
| 1788035205 | 36.11° C | 27% | 1016.5 hPa | 0 mm | - | 1002 W/m² | - |
| 1788034901 | 36.11° C | 28% | 1016.5 hPa | 0 mm | - | 1002 W/m² | - |
| 1788034597 | 36.11° C | 27% | 1016.5 hPa | 0 mm | - | 997 W/m² | - |
| 1788034293 | 36.11° C | 27% | 1016.7 hPa | 0 mm | - | 1011 W/m² | - |
| 1788033993 | 36.11° C | 26% | 1016.6 hPa | 0 mm | - | 1019 W/m² | - |
| 1788033688 | 36.11° C | 26% | 1016.5 hPa | 0 mm | - | 1008 W/m² | - |
| 1788033387 | 36.67° C | 26% | 1016.5 hPa | 0 mm | - | 1024 W/m² | - |
| 1788033082 | 37.22° C | 25% | 1016.8 hPa | 0 mm | - | 491 W/m² | - |
| 1788032782 | 36.67° C | 26% | 1016.8 hPa | 0 mm | - | 1201 W/m² | - |
| 1788032477 | 36.11° C | 26% | 1016.8 hPa | 0 mm | - | 911 W/m² | - |
| 1788032173 | 36.11° C | 26% | 1017.2 hPa | 0 mm | - | 1121 W/m² | - |
* Rain latest hour (hover to see other rain measurements)
** Current wind speed in m/s (hover to see current wind gust speed)